Retour au catalogue

H-2A DEB

ActifSSO
NORAD 38347·DEBRIS·🇯🇵 Japan

Lancé May 17, 2012 depuis Tanegashima Space Center

Loading…

Prochains Passages (prochaines 24 heures)

TLE

FraisSource: Space-Track

Époque: Sep 14, 2026, 08:27 UTC

1 38347U 12025H   26257.35212133  .00002569  00000-0  24744-3 0  9993
2 38347  98.2170  33.9084 0006250 169.8261 190.3085 14.93902385772115

Suivez H-2A DEB en temps réel avec AllMySat

Download on the App Store